Location: Helsinki
(60.1699°N, 24.9384°E)
Time: 21:07:16
(UTC+02:00)

Transit 2A Rocket - Pass Details

Date: 30 September 2023
Orbit: 593 x 903 km, 66.7° (Epoch: 29 November)

Event Time Altitude Azimuth Distance (km) Brightness Sun altitude
Rises 18:41:37 0° 279° (W) 3,153 10.0 1.1°
Reaches altitude 10° 18:44:13 10° 287° (WNW) 2,178 8.7 0.7°
Maximum altitude 18:48:48 38° 356° (N) 1,022 5.7 0.2°
Drops below altitude 10° 18:53:04 10° 65° (ENE) 2,021 6.6 -0.4°
Enters shadow 18:55:17 - 74° (ENE) 2,848 7.3 -0.6°
Sets 18:55:24 0° 74° (ENE) 2,896 - -0.6°
